GOKTURK 2

Last updated on Thu Oct 30 2025 00:02:31 GMT+0000 (Coordinated Universal Time)

1 39030U 12073A 25302.56151501 .00000813 00000+0 12727-3 0 9997 2 39030 97.6945 146.3795 0001698 64.6181 295.5204 14.75198332690502
UTC large
Height (km)
Speed (km/s)
/
Latitude / Longitude
Inclination (degrees)
Orbital Period (minutes)
Azimuth
Elevation
Range (km)
Doppler Factor

Next 0 passes for location: London (51.5072 / 0.1276)

Sorry there are no passes over London.